Location: Harwich
(41.7160°N, 69.9939°W)
Time: 10:25:41
(UTC+01:00)

Explorer 11/Cluster Stage 4 - Visible Passes

Search period start: 28 January 2023 00:00
Search period end: 07 February 2023 00:00
Orbit: 466 x 1244 km, 28.8° (Epoch: 27 January)

Date Brightness Start Highest point End Pass type
(mag) Time Alt. Az. Time Alt. Az. Time Alt. Az.
28 Jan 9.7 12:16:14 10° SSW 12:21:03 17° SSE 12:25:35 10° ESE visible
29 Jan 9.6 12:02:15 10° SSW 12:07:34 19° SSE 12:12:36 10° ESE visible
30 Jan 9.5 11:48:21 10° SSW 11:54:03 21° SSE 11:59:30 10° ESE visible
31 Jan 9.3 11:34:32 10° SSW 11:40:30 23° SSE 11:46:19 10° ESE visible
01 Feb 9.7 09:36:54 10° SSE 09:39:04 11° SSE 09:41:17 10° SE visible
01 Feb 9.2 11:20:46 10° SSW 11:26:57 24° SSE 11:33:02 10° ESE visible
02 Feb 9.5 09:24:16 12° SSE 09:25:29 13° SSE 09:28:34 10° SE visible
02 Feb 9.1 11:07:03 10° SW 11:13:22 26° SSE 11:19:41 10° ESE visible
03 Feb 9.5 09:12:04 14° SSE 09:12:04 14° SSE 09:15:33 10° SE visible
03 Feb 9.0 10:54:03 12° SW 10:59:47 27° SSE 11:06:16 10° ESE visible
04 Feb 9.5 08:59:45 14° SE 08:59:45 14° SE 09:02:21 10° ESE visible
04 Feb 8.9 10:41:43 17° SSW 10:46:10 28° SSE 10:52:47 10° ESE visible
05 Feb 9.6 08:47:22 13° SE 08:47:22 13° SE 08:49:01 10° ESE visible
05 Feb 8.7 10:29:19 21° SSW 10:32:34 28° SSE 10:39:15 10° ESE visible
05 Feb 8.8 12:13:59 10° WSW 12:20:50 31° S 12:27:42 10° SE visible
06 Feb 9.7 08:34:53 12° ESE 08:34:53 12° ESE 08:35:37 10° ESE visible
06 Feb 8.6 10:16:52 25° SSW 10:18:57 29° S 10:25:39 10° ESE visible
06 Feb 8.8 12:00:30 10° WSW 12:07:13 31° S 12:14:04 10° SE visible
